Location: *
(49.3500°N, 12.6000°E)
Time: 07:51:48
(UTC+00:00)

STARLINK-70 - Pass Details

Date: 18 October 2019
Orbit: 549 x 551 km, 53.0° (Epoch: 21 November)

Event Time Altitude Azimuth Distance (km) Brightness Sun altitude
Rises 17:27:18 0° 261° (W) 2,715 9.1 -12.6°
Reaches altitude 10° 17:29:34 10° 266° (W) 1,823 7.8 -13.0°
Maximum altitude 17:33:39 60° 346° (NNW) 633 4.0 -13.7°
Enters shadow 17:36:22 20° 62° (ENE) 1,293 5.0 -14.1°
